owner,sensor,date,latitude,longitude,vertical_datum,sea_water_temperature,qcFlag 
COMPS,ioos:station:USF.COMPS:C10:1,2009-01-01T00:00:00Z,27.1690,-82.9260,-1.0,20.86,2 
COMPS,ioos:station:USF.COMPS:C10:1,2009-01-01T00:20:00Z,27.1690,-82.9260,-1.0,20.88,2 
COMPS,ioos:station:USF.COMPS:C10:1,2009-01-01T00:40:00Z,27.1690,-82.9260,-1.0,20.88,2 
COMPS,ioos:station:USF.COMPS:C10:1,2009-01-01T01:00:00Z,27.1690,-82.9260,-1.0,20.86,2 
COMPS,ioos:station:USF.COMPS:C10:1,2009-01-01T01:20:00Z,27.1690,-82.9260,-1.0,20.85,2 
COMPS,ioos:station:USF.COMPS:C10:1,2009-01-01T01:40:00Z,27.1690,-82.9260,-1.0,20.86,2 
COMPS,ioos:station:USF.COMPS:C10:1,2009-01-01T02:00:00Z,27.1690,-82.9260,-1.0,20.86,2 
COMPS,ioos:station:USF.COMPS:C10:1,2009-01-01T02:20:00Z,27.1690,-82.9260,-1.0,20.87,2 
COMPS,ioos:station:USF.COMPS:C10:1,2009-01-01T02:40:00Z,27.1690,-82.9260,-1.0,20.86,2 
COMPS,ioos:station:USF.COMPS:C10:1,2009-01-01T03:00:00Z,27.1690,-82.9260,-1.0,20.86,2 
COMPS,ioos:station:USF.COMPS:C10:1,2009-01-01T03:20:00Z,27.1690,-82.9260,-1.0,20.88,2 
COMPS,ioos:station:USF.COMPS:C10:1,2009-01-01T03:40:00Z,27.1690,-82.9260,-1.0,20.88,2 
COMPS,ioos:station:USF.COMPS:C10:1,2009-01-01T04:00:00Z,27.1690,-82.9260,-1.0,20.89,2 
COMPS,ioos:station:USF.COMPS:C10:1,2009-01-01T04:20:00Z,27.1690,-82.9260,-1.0,20.89,2 
COMPS,ioos:station:USF.COMPS:C10:1,2009-01-01T04:40:00Z,27.1690,-82.9260,-1.0,20.89,2 
COMPS,ioos:station:USF.COMPS:C10:1,2009-01-01T05:00:00Z,27.1690,-82.9260,-1.0,20.88,2 
COMPS,ioos:station:USF.COMPS:C10:1,2009-01-01T05:20:00Z,27.1690,-82.9260,-1.0,20.87,2 
COMPS,ioos:station:USF.COMPS:C10:1,2009-01-01T05:40:00Z,27.1690,-82.9260,-1.0,20.85,2 
COMPS,ioos:station:USF.COMPS:C10:1,2009-01-01T06:00:00Z,27.1690,-82.9260,-1.0,20.85,2 
COMPS,ioos:station:USF.COMPS:C10:1,2009-01-01T06:20:00Z,27.1690,-82.9260,-1.0,20.84,2 
COMPS,ioos:station:USF.COMPS:C10:1,2009-01-01T06:40:00Z,27.1690,-82.9260,-1.0,20.82,2 
COMPS,ioos:station:USF.COMPS:C10:1,2009-01-01T07:00:00Z,27.1690,-82.9260,-1.0,20.81,2 
COMPS,ioos:station:USF.COMPS:C10:1,2009-01-01T07:20:00Z,27.1690,-82.9260,-1.0,20.77,2 
COMPS,ioos:station:USF.COMPS:C10:1,2009-01-01T07:40:00Z,27.1690,-82.9260,-1.0,20.74,2 
COMPS,ioos:station:USF.COMPS:C10:1,2009-01-01T08:00:00Z,27.1690,-82.9260,-1.0,20.7,2 
COMPS,ioos:station:USF.COMPS:C10:1,2009-01-01T08:20:00Z,27.1690,-82.9260,-1.0,20.66,2 
COMPS,ioos:station:USF.COMPS:C10:1,2009-01-01T08:40:00Z,27.1690,-82.9260,-1.0,20.62,2 
COMPS,ioos:station:USF.COMPS:C10:1,2009-01-01T09:00:00Z,27.1690,-82.9260,-1.0,20.57,2 
COMPS,ioos:station:USF.COMPS:C10:1,2009-01-01T09:20:00Z,27.1690,-82.9260,-1.0,20.52,2 
COMPS,ioos:station:USF.COMPS:C10:1,2009-01-01T09:40:00Z,27.1690,-82.9260,-1.0,20.48,2 
COMPS,ioos:station:USF.COMPS:C10:1,2009-01-01T10:00:00Z,27.1690,-82.9260,-1.0,20.45,2 
COMPS,ioos:station:USF.COMPS:C10:1,2009-01-01T10:20:00Z,27.1690,-82.9260,-1.0,20.42,2 
COMPS,ioos:station:USF.COMPS:C10:1,2009-01-01T10:40:00Z,27.1690,-82.9260,-1.0,20.38,2 
COMPS,ioos:station:USF.COMPS:C10:1,2009-01-01T11:00:00Z,27.1690,-82.9260,-1.0,20.37,2 
COMPS,ioos:station:USF.COMPS:C10:1,2009-01-01T11:20:00Z,27.1690,-82.9260,-1.0,20.35,2 
COMPS,ioos:station:USF.COMPS:C10:1,2009-01-01T11:40:00Z,27.1690,-82.9260,-1.0,20.32,2 
COMPS,ioos:station:USF.COMPS:C10:1,2009-01-01T12:00:00Z,27.1690,-82.9260,-1.0,20.31,2 
COMPS,ioos:station:USF.COMPS:C10:1,2009-01-01T12:20:00Z,27.1690,-82.9260,-1.0,20.3,2 
COMPS,ioos:station:USF.COMPS:C10:1,2009-01-01T12:40:00Z,27.1690,-82.9260,-1.0,20.29,2 
COMPS,ioos:station:USF.COMPS:C10:1,2009-01-01T14:00:00Z,27.1690,-82.9260,-1.0,20.27,2 
COMPS,ioos:station:USF.COMPS:C10:1,2009-01-01T14:20:00Z,27.1690,-82.9260,-1.0,20.28,2 
COMPS,ioos:station:USF.COMPS:C10:1,2009-01-01T14:40:00Z,27.1690,-82.9260,-1.0,20.28,2 
COMPS,ioos:station:USF.COMPS:C10:1,2009-01-01T15:00:00Z,27.1690,-82.9260,-1.0,20.27,2 
COMPS,ioos:station:USF.COMPS:C10:1,2009-01-01T15:20:00Z,27.1690,-82.9260,-1.0,20.28,2 
COMPS,ioos:station:USF.COMPS:C10:1,2009-01-01T15:40:00Z,27.1690,-82.9260,-1.0,20.28,2 
COMPS,ioos:station:USF.COMPS:C10:1,2009-01-01T16:00:00Z,27.1690,-82.9260,-1.0,20.29,2 
COMPS,ioos:station:USF.COMPS:C10:1,2009-01-01T16:20:00Z,27.1690,-82.9260,-1.0,20.31,2 
COMPS,ioos:station:USF.COMPS:C10:1,2009-01-01T16:40:00Z,27.1690,-82.9260,-1.0,20.32,2 
COMPS,ioos:station:USF.COMPS:C10:1,2009-01-01T17:00:00Z,27.1690,-82.9260,-1.0,20.33,2 
COMPS,ioos:station:USF.COMPS:C10:1,2009-01-01T17:20:00Z,27.1690,-82.9260,-1.0,20.34,2 
COMPS,ioos:station:USF.COMPS:C10:1,2009-01-01T17:40:00Z,27.1690,-82.9260,-1.0,20.35,2 
COMPS,ioos:station:USF.COMPS:C10:1,2009-01-01T18:00:00Z,27.1690,-82.9260,-1.0,20.38,2 
COMPS,ioos:station:USF.COMPS:C10:1,2009-01-01T18:20:00Z,27.1690,-82.9260,-1.0,20.39,2 
COMPS,ioos:station:USF.COMPS:C10:1,2009-01-01T18:40:00Z,27.1690,-82.9260,-1.0,20.42,2 
COMPS,ioos:station:USF.COMPS:C10:1,2009-01-01T19:00:00Z,27.1690,-82.9260,-1.0,20.44,2 
COMPS,ioos:station:USF.COMPS:C10:1,2009-01-01T19:20:00Z,27.1690,-82.9260,-1.0,20.44,2 
COMPS,ioos:station:USF.COMPS:C10:1,2009-01-01T19:40:00Z,27.1690,-82.9260,-1.0,20.46,2 
COMPS,ioos:station:USF.COMPS:C10:1,2009-01-01T20:00:00Z,27.1690,-82.9260,-1.0,20.45,2 
COMPS,ioos:station:USF.COMPS:C10:1,2009-01-01T20:20:00Z,27.1690,-82.9260,-1.0,20.44,2 
COMPS,ioos:station:USF.COMPS:C10:1,2009-01-01T20:40:00Z,27.1690,-82.9260,-1.0,20.44,2 
COMPS,ioos:station:USF.COMPS:C10:1,2009-01-01T21:00:00Z,27.1690,-82.9260,-1.0,20.46,2 
COMPS,ioos:station:USF.COMPS:C10:1,2009-01-01T21:20:00Z,27.1690,-82.9260,-1.0,20.45,2 
COMPS,ioos:station:USF.COMPS:C10:1,2009-01-01T21:40:00Z,27.1690,-82.9260,-1.0,20.47,2 
COMPS,ioos:station:USF.COMPS:C10:1,2009-01-01T22:00:00Z,27.1690,-82.9260,-1.0,20.48,2 
COMPS,ioos:station:USF.COMPS:C10:1,2009-01-01T22:20:00Z,27.1690,-82.9260,-1.0,20.49,2 
COMPS,ioos:station:USF.COMPS:C10:1,2009-01-01T22:40:00Z,27.1690,-82.9260,-1.0,20.49,2 
COMPS,ioos:station:USF.COMPS:C10:1,2009-01-01T23:00:00Z,27.1690,-82.9260,-1.0,20.49,2 
COMPS,ioos:station:USF.COMPS:C10:1,2009-01-01T23:20:00Z,27.1690,-82.9260,-1.0,20.5,2 
COMPS,ioos:station:USF.COMPS:C10:1,2009-01-01T23:40:00Z,27.1690,-82.9260,-1.0,20.52,2 
COMPS,ioos:station:USF.COMPS:C10:1,2009-01-02T00:00:00Z,27.1690,-82.9260,-1.0,20.51,2 
COMPS,ioos:station:USF.COMPS:C10:1,2009-01-02T00:20:00Z,27.1690,-82.9260,-1.0,20.5,2 
COMPS,ioos:station:USF.COMPS:C10:1,2009-01-02T00:40:00Z,27.1690,-82.9260,-1.0,20.5,2 
COMPS,ioos:station:USF.COMPS:C10:1,2009-01-02T01:00:00Z,27.1690,-82.9260,-1.0,20.47,2 
COMPS,ioos:station:USF.COMPS:C10:1,2009-01-02T01:20:00Z,27.1690,-82.9260,-1.0,20.47,2 
COMPS,ioos:station:USF.COMPS:C10:1,2009-01-02T01:40:00Z,27.1690,-82.9260,-1.0,20.44,2 
COMPS,ioos:station:USF.COMPS:C10:1,2009-01-02T02:00:00Z,27.1690,-82.9260,-1.0,20.42,2 
COMPS,ioos:station:USF.COMPS:C10:1,2009-01-02T02:20:00Z,27.1690,-82.9260,-1.0,20.42,2 
COMPS,ioos:station:USF.COMPS:C10:1,2009-01-02T02:40:00Z,27.1690,-82.9260,-1.0,20.44,2 
COMPS,ioos:station:USF.COMPS:C10:1,2009-01-02T03:00:00Z,27.1690,-82.9260,-1.0,20.43,2 
COMPS,ioos:station:USF.COMPS:C10:1,2009-01-02T03:20:00Z,27.1690,-82.9260,-1.0,20.43,2 
COMPS,ioos:station:USF.COMPS:C10:1,2009-01-02T03:40:00Z,27.1690,-82.9260,-1.0,20.44,2 
COMPS,ioos:station:USF.COMPS:C10:1,2009-01-02T04:00:00Z,27.1690,-82.9260,-1.0,20.44,2 
COMPS,ioos:station:USF.COMPS:C10:1,2009-01-02T04:20:00Z,27.1690,-82.9260,-1.0,20.44,2 
COMPS,ioos:station:USF.COMPS:C10:1,2009-01-02T04:40:00Z,27.1690,-82.9260,-1.0,20.44,2 
COMPS,ioos:station:USF.COMPS:C10:1,2009-01-02T05:00:00Z,27.1690,-82.9260,-1.0,20.45,2 
COMPS,ioos:station:USF.COMPS:C10:1,2009-01-02T05:20:00Z,27.1690,-82.9260,-1.0,20.45,2 
COMPS,ioos:station:USF.COMPS:C10:1,2009-01-02T05:40:00Z,27.1690,-82.9260,-1.0,20.45,2 
COMPS,ioos:station:USF.COMPS:C10:1,2009-01-02T06:00:00Z,27.1690,-82.9260,-1.0,20.46,2 
COMPS,ioos:station:USF.COMPS:C10:1,2009-01-02T06:20:00Z,27.1690,-82.9260,-1.0,20.46,2 
COMPS,ioos:station:USF.COMPS:C10:1,2009-01-02T06:40:00Z,27.1690,-82.9260,-1.0,20.46,2 
COMPS,ioos:station:USF.COMPS:C10:1,2009-01-02T07:00:00Z,27.1690,-82.9260,-1.0,20.46,2 
COMPS,ioos:station:USF.COMPS:C10:1,2009-01-02T07:20:00Z,27.1690,-82.9260,-1.0,20.47,2 
COMPS,ioos:station:USF.COMPS:C10:1,2009-01-02T07:40:00Z,27.1690,-82.9260,-1.0,20.47,2 
COMPS,ioos:station:USF.COMPS:C10:1,2009-01-02T08:00:00Z,27.1690,-82.9260,-1.0,20.48,2 
COMPS,ioos:station:USF.COMPS:C10:1,2009-01-02T08:20:00Z,27.1690,-82.9260,-1.0,20.48,2 
COMPS,ioos:station:USF.COMPS:C10:1,2009-01-02T08:40:00Z,27.1690,-82.9260,-1.0,20.48,2 
COMPS,ioos:station:USF.COMPS:C10:1,2009-01-02T09:00:00Z,27.1690,-82.9260,-1.0,20.48,2 
COMPS,ioos:station:USF.COMPS:C10:1,2009-01-02T09:20:00Z,27.1690,-82.9260,-1.0,20.48,2 
COMPS,ioos:station:USF.COMPS:C10:1,2009-01-02T09:40:00Z,27.1690,-82.9260,-1.0,20.48,2 
COMPS,ioos:station:USF.COMPS:C10:1,2009-01-02T10:00:00Z,27.1690,-82.9260,-1.0,20.48,2 
COMPS,ioos:station:USF.COMPS:C10:1,2009-01-02T10:20:00Z,27.1690,-82.9260,-1.0,20.48,2 
COMPS,ioos:station:USF.COMPS:C10:1,2009-01-02T10:40:00Z,27.1690,-82.9260,-1.0,20.47,2 
COMPS,ioos:station:USF.COMPS:C10:1,2009-01-02T11:00:00Z,27.1690,-82.9260,-1.0,20.47,2 
COMPS,ioos:station:USF.COMPS:C10:1,2009-01-02T11:20:00Z,27.1690,-82.9260,-1.0,20.48,2 
COMPS,ioos:station:USF.COMPS:C10:1,2009-01-02T11:40:00Z,27.1690,-82.9260,-1.0,20.48,2 
COMPS,ioos:station:USF.COMPS:C10:1,2009-01-02T12:00:00Z,27.1690,-82.9260,-1.0,20.47,2 
COMPS,ioos:station:USF.COMPS:C10:1,2009-01-02T12:20:00Z,27.1690,-82.9260,-1.0,20.47,2 
COMPS,ioos:station:USF.COMPS:C10:1,2009-01-02T12:40:00Z,27.1690,-82.9260,-1.0,20.46,2 
COMPS,ioos:station:USF.COMPS:C10:1,2009-01-02T13:00:00Z,27.1690,-82.9260,-1.0,20.47,2 
COMPS,ioos:station:USF.COMPS:C10:1,2009-01-02T13:20:00Z,27.1690,-82.9260,-1.0,20.47,2 
COMPS,ioos:station:USF.COMPS:C10:1,2009-01-02T13:40:00Z,27.1690,-82.9260,-1.0,20.47,2 
COMPS,ioos:station:USF.COMPS:C10:1,2009-01-02T14:00:00Z,27.1690,-82.9260,-1.0,20.47,2 
COMPS,ioos:station:USF.COMPS:C10:1,2009-01-02T14:20:00Z,27.1690,-82.9260,-1.0,20.48,2 
COMPS,ioos:station:USF.COMPS:C10:1,2009-01-02T14:40:00Z,27.1690,-82.9260,-1.0,20.48,2 
COMPS,ioos:station:USF.COMPS:C10:1,2009-01-02T15:00:00Z,27.1690,-82.9260,-1.0,20.49,2 
COMPS,ioos:station:USF.COMPS:C10:1,2009-01-02T15:20:00Z,27.1690,-82.9260,-1.0,20.5,2 
COMPS,ioos:station:USF.COMPS:C10:1,2009-01-02T15:40:00Z,27.1690,-82.9260,-1.0,20.51,2 
COMPS,ioos:station:USF.COMPS:C10:1,2009-01-02T16:00:00Z,27.1690,-82.9260,-1.0,20.52,2 
COMPS,ioos:station:USF.COMPS:C10:1,2009-01-02T16:20:00Z,27.1690,-82.9260,-1.0,20.53,2 
COMPS,ioos:station:USF.COMPS:C10:1,2009-01-02T16:40:00Z,27.1690,-82.9260,-1.0,20.54,2 
COMPS,ioos:station:USF.COMPS:C10:1,2009-01-02T17:00:00Z,27.1690,-82.9260,-1.0,20.55,2 
COMPS,ioos:station:USF.COMPS:C10:1,2009-01-02T17:20:00Z,27.1690,-82.9260,-1.0,20.56,2 
COMPS,ioos:station:USF.COMPS:C10:1,2009-01-02T17:40:00Z,27.1690,-82.9260,-1.0,20.58,2 
COMPS,ioos:station:USF.COMPS:C10:1,2009-01-02T18:00:00Z,27.1690,-82.9260,-1.0,20.59,2 
COMPS,ioos:station:USF.COMPS:C10:1,2009-01-02T18:20:00Z,27.1690,-82.9260,-1.0,20.61,2 
COMPS,ioos:station:USF.COMPS:C10:1,2009-01-02T18:40:00Z,27.1690,-82.9260,-1.0,20.63,2 
COMPS,ioos:station:USF.COMPS:C10:1,2009-01-02T19:00:00Z,27.1690,-82.9260,-1.0,20.66,2 
COMPS,ioos:station:USF.COMPS:C10:1,2009-01-02T19:20:00Z,27.1690,-82.9260,-1.0,20.67,2 
COMPS,ioos:station:USF.COMPS:C10:1,2009-01-02T19:40:00Z,27.1690,-82.9260,-1.0,20.67,2 
COMPS,ioos:station:USF.COMPS:C10:1,2009-01-02T20:00:00Z,27.1690,-82.9260,-1.0,20.69,2 
COMPS,ioos:station:USF.COMPS:C10:1,2009-01-02T20:20:00Z,27.1690,-82.9260,-1.0,20.7,2 
COMPS,ioos:station:USF.COMPS:C10:1,2009-01-02T20:40:00Z,27.1690,-82.9260,-1.0,20.73,2 
COMPS,ioos:station:USF.COMPS:C10:1,2009-01-02T21:00:00Z,27.1690,-82.9260,-1.0,20.74,2 
COMPS,ioos:station:USF.COMPS:C10:1,2009-01-02T21:20:00Z,27.1690,-82.9260,-1.0,20.74,2 
COMPS,ioos:station:USF.COMPS:C10:1,2009-01-02T21:40:00Z,27.1690,-82.9260,-1.0,20.75,2 
COMPS,ioos:station:USF.COMPS:C10:1,2009-01-02T22:00:00Z,27.1690,-82.9260,-1.0,20.75,2 
COMPS,ioos:station:USF.COMPS:C10:1,2009-01-02T22:20:00Z,27.1690,-82.9260,-1.0,20.75,2 
COMPS,ioos:station:USF.COMPS:C10:1,2009-01-02T22:40:00Z,27.1690,-82.9260,-1.0,20.75,2 
COMPS,ioos:station:USF.COMPS:C10:1,2009-01-02T23:00:00Z,27.1690,-82.9260,-1.0,20.75,2 
COMPS,ioos:station:USF.COMPS:C10:1,2009-01-02T23:20:00Z,27.1690,-82.9260,-1.0,20.74,2 
COMPS,ioos:station:USF.COMPS:C10:1,2009-01-02T23:40:00Z,27.1690,-82.9260,-1.0,20.73,2 
COMPS,ioos:station:USF.COMPS:C10:1,2009-01-03T00:00:00Z,27.1690,-82.9260,-1.0,20.72,2 
COMPS,ioos:station:USF.COMPS:C10:1,2009-01-03T00:20:00Z,27.1690,-82.9260,-1.0,20.71,2 
COMPS,ioos:station:USF.COMPS:C10:1,2009-01-03T00:40:00Z,27.1690,-82.9260,-1.0,20.71,2 
COMPS,ioos:station:USF.COMPS:C10:1,2009-01-03T01:00:00Z,27.1690,-82.9260,-1.0,20.7,2 
COMPS,ioos:station:USF.COMPS:C10:1,2009-01-03T01:20:00Z,27.1690,-82.9260,-1.0,20.7,2 
COMPS,ioos:station:USF.COMPS:C10:1,2009-01-03T01:40:00Z,27.1690,-82.9260,-1.0,20.7,2 
COMPS,ioos:station:USF.COMPS:C10:1,2009-01-03T02:00:00Z,27.1690,-82.9260,-1.0,20.69,2 
COMPS,ioos:station:USF.COMPS:C10:1,2009-01-03T02:20:00Z,27.1690,-82.9260,-1.0,20.69,2 
COMPS,ioos:station:USF.COMPS:C10:1,2009-01-03T02:40:00Z,27.1690,-82.9260,-1.0,20.68,2 
COMPS,ioos:station:USF.COMPS:C10:1,2009-01-03T03:00:00Z,27.1690,-82.9260,-1.0,20.68,2 
COMPS,ioos:station:USF.COMPS:C10:1,2009-01-03T03:20:00Z,27.1690,-82.9260,-1.0,20.68,2 
COMPS,ioos:station:USF.COMPS:C10:1,2009-01-03T03:40:00Z,27.1690,-82.9260,-1.0,20.68,2 
COMPS,ioos:station:USF.COMPS:C10:1,2009-01-03T04:00:00Z,27.1690,-82.9260,-1.0,20.68,2 
COMPS,ioos:station:USF.COMPS:C10:1,2009-01-03T04:20:00Z,27.1690,-82.9260,-1.0,20.68,2 
COMPS,ioos:station:USF.COMPS:C10:1,2009-01-03T04:40:00Z,27.1690,-82.9260,-1.0,20.67,2 
COMPS,ioos:station:USF.COMPS:C10:1,2009-01-03T05:00:00Z,27.1690,-82.9260,-1.0,20.67,2 
COMPS,ioos:station:USF.COMPS:C10:1,2009-01-03T05:20:00Z,27.1690,-82.9260,-1.0,20.67,2 
COMPS,ioos:station:USF.COMPS:C10:1,2009-01-03T05:40:00Z,27.1690,-82.9260,-1.0,20.66,2 
COMPS,ioos:station:USF.COMPS:C10:1,2009-01-03T06:00:00Z,27.1690,-82.9260,-1.0,20.66,2 
COMPS,ioos:station:USF.COMPS:C10:1,2009-01-03T06:20:00Z,27.1690,-82.9260,-1.0,20.66,2 
COMPS,ioos:station:USF.COMPS:C10:1,2009-01-03T06:40:00Z,27.1690,-82.9260,-1.0,20.66,2 
COMPS,ioos:station:USF.COMPS:C10:1,2009-01-03T07:00:00Z,27.1690,-82.9260,-1.0,20.65,2 
COMPS,ioos:station:USF.COMPS:C10:1,2009-01-03T07:20:00Z,27.1690,-82.9260,-1.0,20.65,2 
COMPS,ioos:station:USF.COMPS:C10:1,2009-01-03T07:40:00Z,27.1690,-82.9260,-1.0,20.66,2 
COMPS,ioos:station:USF.COMPS:C10:1,2009-01-03T08:00:00Z,27.1690,-82.9260,-1.0,20.66,2 
COMPS,ioos:station:USF.COMPS:C10:1,2009-01-03T08:20:00Z,27.1690,-82.9260,-1.0,20.66,2 
COMPS,ioos:station:USF.COMPS:C10:1,2009-01-03T08:40:00Z,27.1690,-82.9260,-1.0,20.65,2 
COMPS,ioos:station:USF.COMPS:C10:1,2009-01-03T09:00:00Z,27.1690,-82.9260,-1.0,20.65,2 
COMPS,ioos:station:USF.COMPS:C10:1,2009-01-03T09:20:00Z,27.1690,-82.9260,-1.0,20.65,2 
COMPS,ioos:station:USF.COMPS:C10:1,2009-01-03T09:40:00Z,27.1690,-82.9260,-1.0,20.65,2 
COMPS,ioos:station:USF.COMPS:C10:1,2009-01-03T10:00:00Z,27.1690,-82.9260,-1.0,20.64,2 
COMPS,ioos:station:USF.COMPS:C10:1,2009-01-03T10:20:00Z,27.1690,-82.9260,-1.0,20.64,2 
COMPS,ioos:station:USF.COMPS:C10:1,2009-01-03T10:40:00Z,27.1690,-82.9260,-1.0,20.63,2 
COMPS,ioos:station:USF.COMPS:C10:1,2009-01-03T11:00:00Z,27.1690,-82.9260,-1.0,20.63,2 
COMPS,ioos:station:USF.COMPS:C10:1,2009-01-03T11:20:00Z,27.1690,-82.9260,-1.0,20.62,2 
COMPS,ioos:station:USF.COMPS:C10:1,2009-01-03T11:40:00Z,27.1690,-82.9260,-1.0,20.62,2 
COMPS,ioos:station:USF.COMPS:C10:1,2009-01-03T12:00:00Z,27.1690,-82.9260,-1.0,20.62,2 
COMPS,ioos:station:USF.COMPS:C10:1,2009-01-03T12:20:00Z,27.1690,-82.9260,-1.0,20.62,2 
COMPS,ioos:station:USF.COMPS:C10:1,2009-01-03T12:40:00Z,27.1690,-82.9260,-1.0,20.61,2 
COMPS,ioos:station:USF.COMPS:C10:1,2009-01-03T21:00:00Z,27.1690,-82.9260,-1.0,20.79,2 
COMPS,ioos:station:USF.COMPS:C10:1,2009-01-03T21:20:00Z,27.1690,-82.9260,-1.0,20.8,2 
COMPS,ioos:station:USF.COMPS:C10:1,2009-01-03T21:40:00Z,27.1690,-82.9260,-1.0,20.8,2 
COMPS,ioos:station:USF.COMPS:C10:1,2009-01-03T22:00:00Z,27.1690,-82.9260,-1.0,20.79,2 
COMPS,ioos:station:USF.COMPS:C10:1,2009-01-03T22:20:00Z,27.1690,-82.9260,-1.0,20.79,2 
COMPS,ioos:station:USF.COMPS:C10:1,2009-01-03T22:40:00Z,27.1690,-82.9260,-1.0,20.78,2 
COMPS,ioos:station:USF.COMPS:C10:1,2009-01-03T23:00:00Z,27.1690,-82.9260,-1.0,20.78,2 
COMPS,ioos:station:USF.COMPS:C10:1,2009-01-03T23:20:00Z,27.1690,-82.9260,-1.0,20.79,2 
COMPS,ioos:station:USF.COMPS:C10:1,2009-01-03T23:40:00Z,27.1690,-82.9260,-1.0,20.78,2 
COMPS,ioos:station:USF.COMPS:C10:1,2009-01-04T00:00:00Z,27.1690,-82.9260,-1.0,20.78,2 
COMPS,ioos:station:USF.COMPS:C10:1,2009-01-04T00:20:00Z,27.1690,-82.9260,-1.0,20.78,2 
COMPS,ioos:station:USF.COMPS:C10:1,2009-01-04T00:40:00Z,27.1690,-82.9260,-1.0,20.8,2 
COMPS,ioos:station:USF.COMPS:C10:1,2009-01-04T01:00:00Z,27.1690,-82.9260,-1.0,20.8,2 
COMPS,ioos:station:USF.COMPS:C10:1,2009-01-04T01:20:00Z,27.1690,-82.9260,-1.0,20.79,2 
COMPS,ioos:station:USF.COMPS:C10:1,2009-01-04T01:40:00Z,27.1690,-82.9260,-1.0,20.79,2 
COMPS,ioos:station:USF.COMPS:C10:1,2009-01-04T02:00:00Z,27.1690,-82.9260,-1.0,20.78,2 
COMPS,ioos:station:USF.COMPS:C10:1,2009-01-04T02:20:00Z,27.1690,-82.9260,-1.0,20.78,2 
COMPS,ioos:station:USF.COMPS:C10:1,2009-01-04T02:40:00Z,27.1690,-82.9260,-1.0,20.78,2 
COMPS,ioos:station:USF.COMPS:C10:1,2009-01-04T03:00:00Z,27.1690,-82.9260,-1.0,20.77,2 
COMPS,ioos:station:USF.COMPS:C10:1,2009-01-04T03:20:00Z,27.1690,-82.9260,-1.0,20.77,2 
COMPS,ioos:station:USF.COMPS:C10:1,2009-01-04T03:40:00Z,27.1690,-82.9260,-1.0,20.77,2 
COMPS,ioos:station:USF.COMPS:C10:1,2009-01-04T04:00:00Z,27.1690,-82.9260,-1.0,20.76,2 
COMPS,ioos:station:USF.COMPS:C10:1,2009-01-04T04:20:00Z,27.1690,-82.9260,-1.0,20.76,2 
COMPS,ioos:station:USF.COMPS:C10:1,2009-01-04T04:40:00Z,27.1690,-82.9260,-1.0,20.76,2 
COMPS,ioos:station:USF.COMPS:C10:1,2009-01-04T05:00:00Z,27.1690,-82.9260,-1.0,20.75,2 
COMPS,ioos:station:USF.COMPS:C10:1,2009-01-04T05:20:00Z,27.1690,-82.9260,-1.0,20.75,2 
COMPS,ioos:station:USF.COMPS:C10:1,2009-01-04T05:40:00Z,27.1690,-82.9260,-1.0,20.74,2 
COMPS,ioos:station:USF.COMPS:C10:1,2009-01-04T06:00:00Z,27.1690,-82.9260,-1.0,20.73,2 
COMPS,ioos:station:USF.COMPS:C10:1,2009-01-04T06:20:00Z,27.1690,-82.9260,-1.0,20.73,2 
COMPS,ioos:station:USF.COMPS:C10:1,2009-01-04T06:40:00Z,27.1690,-82.9260,-1.0,20.72,2 
COMPS,ioos:station:USF.COMPS:C10:1,2009-01-04T07:00:00Z,27.1690,-82.9260,-1.0,20.72,2 
COMPS,ioos:station:USF.COMPS:C10:1,2009-01-04T07:20:00Z,27.1690,-82.9260,-1.0,20.72,2 
COMPS,ioos:station:USF.COMPS:C10:1,2009-01-04T07:40:00Z,27.1690,-82.9260,-1.0,20.72,2 
COMPS,ioos:station:USF.COMPS:C10:1,2009-01-04T08:00:00Z,27.1690,-82.9260,-1.0,20.72,2 
COMPS,ioos:station:USF.COMPS:C10:1,2009-01-04T08:20:00Z,27.1690,-82.9260,-1.0,20.71,2 
COMPS,ioos:station:USF.COMPS:C10:1,2009-01-04T08:40:00Z,27.1690,-82.9260,-1.0,20.71,2 
COMPS,ioos:station:USF.COMPS:C10:1,2009-01-04T09:00:00Z,27.1690,-82.9260,-1.0,20.7,2 
COMPS,ioos:station:USF.COMPS:C10:1,2009-01-04T09:20:00Z,27.1690,-82.9260,-1.0,20.7,2 
COMPS,ioos:station:USF.COMPS:C10:1,2009-01-04T09:40:00Z,27.1690,-82.9260,-1.0,20.69,2 
COMPS,ioos:station:USF.COMPS:C10:1,2009-01-04T10:00:00Z,27.1690,-82.9260,-1.0,20.69,2 
COMPS,ioos:station:USF.COMPS:C10:1,2009-01-04T10:20:00Z,27.1690,-82.9260,-1.0,20.69,2 
COMPS,ioos:station:USF.COMPS:C10:1,2009-01-04T10:40:00Z,27.1690,-82.9260,-1.0,20.69,2 
COMPS,ioos:station:USF.COMPS:C10:1,2009-01-04T11:00:00Z,27.1690,-82.9260,-1.0,20.68,2 
COMPS,ioos:station:USF.COMPS:C10:1,2009-01-04T11:20:00Z,27.1690,-82.9260,-1.0,20.68,2 
COMPS,ioos:station:USF.COMPS:C10:1,2009-01-04T11:40:00Z,27.1690,-82.9260,-1.0,20.68,2 
COMPS,ioos:station:USF.COMPS:C10:1,2009-01-04T12:00:00Z,27.1690,-82.9260,-1.0,20.67,2 
COMPS,ioos:station:USF.COMPS:C10:1,2009-01-04T12:20:00Z,27.1690,-82.9260,-1.0,20.67,2 
COMPS,ioos:station:USF.COMPS:C10:1,2009-01-04T12:40:00Z,27.1690,-82.9260,-1.0,20.67,2 
COMPS,ioos:station:USF.COMPS:C10:1,2009-01-04T13:00:00Z,27.1690,-82.9260,-1.0,20.66,2 
COMPS,ioos:station:USF.COMPS:C10:1,2009-01-04T13:20:00Z,27.1690,-82.9260,-1.0,20.66,2 
COMPS,ioos:station:USF.COMPS:C10:1,2009-01-04T13:40:00Z,27.1690,-82.9260,-1.0,20.65,2 
COMPS,ioos:station:USF.COMPS:C10:1,2009-01-04T14:00:00Z,27.1690,-82.9260,-1.0,20.65,2 
COMPS,ioos:station:USF.COMPS:C10:1,2009-01-04T14:20:00Z,27.1690,-82.9260,-1.0,20.65,2 
COMPS,ioos:station:USF.COMPS:C10:1,2009-01-04T14:40:00Z,27.1690,-82.9260,-1.0,20.66,2 
COMPS,ioos:station:USF.COMPS:C10:1,2009-01-04T15:00:00Z,27.1690,-82.9260,-1.0,20.66,2 
COMPS,ioos:station:USF.COMPS:C10:1,2009-01-04T15:20:00Z,27.1690,-82.9260,-1.0,20.66,2 
COMPS,ioos:station:USF.COMPS:C10:1,2009-01-04T15:40:00Z,27.1690,-82.9260,-1.0,20.66,2 
COMPS,ioos:station:USF.COMPS:C10:1,2009-01-04T16:00:00Z,27.1690,-82.9260,-1.0,20.67,2 
COMPS,ioos:station:USF.COMPS:C10:1,2009-01-04T16:20:00Z,27.1690,-82.9260,-1.0,20.68,2 
COMPS,ioos:station:USF.COMPS:C10:1,2009-01-04T16:40:00Z,27.1690,-82.9260,-1.0,20.69,2 
COMPS,ioos:station:USF.COMPS:C10:1,2009-01-04T17:00:00Z,27.1690,-82.9260,-1.0,20.69,2 
COMPS,ioos:station:USF.COMPS:C10:1,2009-01-04T17:20:00Z,27.1690,-82.9260,-1.0,20.7,2 
COMPS,ioos:station:USF.COMPS:C10:1,2009-01-04T17:40:00Z,27.1690,-82.9260,-1.0,20.71,2 
COMPS,ioos:station:USF.COMPS:C10:1,2009-01-04T18:00:00Z,27.1690,-82.9260,-1.0,20.72,2 
COMPS,ioos:station:USF.COMPS:C10:1,2009-01-04T18:20:00Z,27.1690,-82.9260,-1.0,20.73,2 
COMPS,ioos:station:USF.COMPS:C10:1,2009-01-04T18:40:00Z,27.1690,-82.9260,-1.0,20.74,2 
COMPS,ioos:station:USF.COMPS:C10:1,2009-01-04T19:00:00Z,27.1690,-82.9260,-1.0,20.74,2 
COMPS,ioos:station:USF.COMPS:C10:1,2009-01-04T19:20:00Z,27.1690,-82.9260,-1.0,20.75,2 
COMPS,ioos:station:USF.COMPS:C10:1,2009-01-04T19:40:00Z,27.1690,-82.9260,-1.0,20.76,2 
COMPS,ioos:station:USF.COMPS:C10:1,2009-01-04T20:00:00Z,27.1690,-82.9260,-1.0,20.78,2 
COMPS,ioos:station:USF.COMPS:C10:1,2009-01-04T20:20:00Z,27.1690,-82.9260,-1.0,20.78,2 
COMPS,ioos:station:USF.COMPS:C10:1,2009-01-04T20:40:00Z,27.1690,-82.9260,-1.0,20.8,2 
COMPS,ioos:station:USF.COMPS:C10:1,2009-01-04T21:00:00Z,27.1690,-82.9260,-1.0,20.81,2 
COMPS,ioos:station:USF.COMPS:C10:1,2009-01-04T21:20:00Z,27.1690,-82.9260,-1.0,20.82,2 
COMPS,ioos:station:USF.COMPS:C10:1,2009-01-04T21:40:00Z,27.1690,-82.9260,-1.0,20.82,2 
COMPS,ioos:station:USF.COMPS:C10:1,2009-01-04T22:00:00Z,27.1690,-82.9260,-1.0,20.82,2 
COMPS,ioos:station:USF.COMPS:C10:1,2009-01-04T22:20:00Z,27.1690,-82.9260,-1.0,20.83,2 
COMPS,ioos:station:USF.COMPS:C10:1,2009-01-04T22:40:00Z,27.1690,-82.9260,-1.0,20.83,2 
COMPS,ioos:station:USF.COMPS:C10:1,2009-01-04T23:00:00Z,27.1690,-82.9260,-1.0,20.82,2 
COMPS,ioos:station:USF.COMPS:C10:1,2009-01-04T23:20:00Z,27.1690,-82.9260,-1.0,20.82,2 
COMPS,ioos:station:USF.COMPS:C10:1,2009-01-04T23:40:00Z,27.1690,-82.9260,-1.0,20.82,2 
COMPS,ioos:station:USF.COMPS:C10:1,2009-01-05T00:00:00Z,27.1690,-82.9260,-1.0,20.82,2 
COMPS,ioos:station:USF.COMPS:C10:1,2009-01-05T00:20:00Z,27.1690,-82.9260,-1.0,20.83,2 
COMPS,ioos:station:USF.COMPS:C10:1,2009-01-05T00:40:00Z,27.1690,-82.9260,-1.0,20.83,2 
COMPS,ioos:station:USF.COMPS:C10:1,2009-01-05T01:00:00Z,27.1690,-82.9260,-1.0,20.83,2 
COMPS,ioos:station:USF.COMPS:C10:1,2009-01-05T01:20:00Z,27.1690,-82.9260,-1.0,20.82,2 
COMPS,ioos:station:USF.COMPS:C10:1,2009-01-05T01:40:00Z,27.1690,-82.9260,-1.0,20.82,2 
COMPS,ioos:station:USF.COMPS:C10:1,2009-01-05T02:00:00Z,27.1690,-82.9260,-1.0,20.81,2 
COMPS,ioos:station:USF.COMPS:C10:1,2009-01-05T02:20:00Z,27.1690,-82.9260,-1.0,20.82,2 
COMPS,ioos:station:USF.COMPS:C10:1,2009-01-05T02:40:00Z,27.1690,-82.9260,-1.0,20.81,2 
COMPS,ioos:station:USF.COMPS:C10:1,2009-01-05T03:00:00Z,27.1690,-82.9260,-1.0,20.81,2 
COMPS,ioos:station:USF.COMPS:C10:1,2009-01-05T03:20:00Z,27.1690,-82.9260,-1.0,20.81,2 
COMPS,ioos:station:USF.COMPS:C10:1,2009-01-05T03:40:00Z,27.1690,-82.9260,-1.0,20.82,2 
COMPS,ioos:station:USF.COMPS:C10:1,2009-01-05T04:00:00Z,27.1690,-82.9260,-1.0,20.83,2 
COMPS,ioos:station:USF.COMPS:C10:1,2009-01-05T04:20:00Z,27.1690,-82.9260,-1.0,20.84,2 